Location: Caltech
(34.1382°N, 118.1253°W)
Time: 08:28:28
(UTC-07:00)

SL-16 R/B - Visible Passes

Search period start: 17 April 2014 00:00
Search period end: 27 April 2014 00:00
Orbit: 844 x 846 km, 71.0° (Epoch: 16 April)

Date Brightness Start Highest point End Pass type
(mag) Time Alt. Az. Time Alt. Az. Time Alt. Az.
21 Apr 4.9 05:47:22 10° SE 05:50:54 17° E 05:54:27 10° ENE visible
22 Apr 4.9 05:33:23 10° SE 05:36:47 16° E 05:40:11 10° ENE visible
23 Apr 4.9 05:19:25 10° SE 05:22:40 16° E 05:25:55 10° ENE visible
24 Apr 4.9 05:05:28 10° SE 05:08:33 15° E 05:11:38 10° ENE visible
25 Apr 4.9 04:51:32 10° SE 04:54:26 14° E 04:57:20 10° ENE visible
26 Apr 4.9 04:37:36 10° SE 04:40:18 14° E 04:43:01 10° ENE visible
